USTRANSCOM 7517


EGUN
RAF Mildenhall
Mildenhall, GB
ETAR
Ramstein Air Force Base
Ramstein, DE

Activity Log

Date Flight Route Aircraft Duration
No Flights Yet

Route Details

Aircraft Information
Primary: Boeing 767-300BDSF
Backup: Boeing 757-200SF
Route Data
Distance: 322nm
Sched. Duration: 1h 00m
Avg. Duration: 0h 00m (-100m)
Times Flown: 0
Recm'd Route: Not Available
Planned Altitude: 33,000ft
Origin Wx: EGUN 290356Z AUTO 07004KT 9999 CLR 07/07 A3042 RMK AO2 SLP304 T00650065 $
Dest. Wx: ETAR 290356Z AUTO 00000KT 9999 CLR 01/01 A3034 RMK AO2 SLP279 T00130012 FZRANO $
Notes: USTRANSCOM CONTRACT FLIGHT

Financial History
Total Freight: 0lbs
Average Load: 0lbs/flt
Fuel Used: 0lbs
Avg. Fuel Used: 0lbs/flt
Fuel Expense: $0
Avg. Fuel Expense: $0
Avg. Fuel Cost: $0/lbs
Total Gross Income: $0
Pilot Pay: $0
Total Expenses: $0
Total Revenue: $0
Average Revenue: $0